KAL2155 RKSI-RJFT

Flight info

Callsign KAL2155
Flight time 1h 5m
Altitude 31000
Route OSPOT2Y OSPOT Y782 TGU Y781 BESNA Y209 IKE Y251 OLE Y40 KUE
Aircraft B739/M-SDE2E3FGHIRWXY/LB1

Departure

Time 2026-05-07 08:44
Airport Incheon International Airport (RKSI)

Arrival

Time 2026-05-07 09:49
Airport Kumamoto Airport (RJFT)
Time Latitude Longitude Altitude Speed Heading
2026-05-07 08:02 37.46751 126.44129 32 ft 0 kts 220°
2026-05-07 08:32 37.46756 126.44134 32 ft 4 kts 219°
2026-05-07 08:32 37.46777 126.44155 29 ft 4 kts 219°
2026-05-07 08:32 37.46797 126.44177 30 ft 4 kts 223°
2026-05-07 08:32 37.46815 126.44201 29 ft 4 kts 240°
2026-05-07 08:33 37.46821 126.44225 30 ft 4 kts 303°
2026-05-07 08:33 37.46809 126.44242 28 ft 1 kts 314°
2026-05-07 08:33 37.46809 126.44243 28 ft 1 kts 314°
2026-05-07 08:36 37.46809 126.44242 28 ft 0 kts 314°
2026-05-07 08:37 37.46814 126.44237 30 ft 1 kts 316°
2026-05-07 08:37 37.46823 126.44227 30 ft 2 kts 319°
2026-05-07 08:37 37.46835 126.44211 32 ft 3 kts 315°
2026-05-07 08:37 37.46852 126.44191 32 ft 4 kts 315°
2026-05-07 08:38 37.46879 126.44156 32 ft 7 kts 312°
2026-05-07 08:38 37.46915 126.44107 31 ft 8 kts 313°
2026-05-07 08:38 37.46966 126.44093 31 ft 8 kts 21°
2026-05-07 08:38 37.47004 126.44144 32 ft 8 kts 53°
2026-05-07 08:39 37.47046 126.44194 30 ft 9 kts 19°
2026-05-07 08:39 37.47103 126.44173 31 ft 9 kts 327°
2026-05-07 08:39 37.47155 126.44127 30 ft 10 kts 324°
2026-05-07 08:39 37.47215 126.44074 32 ft 11 kts 324°
2026-05-07 08:40 37.47286 126.44011 32 ft 13 kts 324°
2026-05-07 08:40 37.47381 126.43926 32 ft 19 kts 324°
2026-05-07 08:40 37.47491 126.43828 30 ft 19 kts 324°
2026-05-07 08:40 37.47596 126.43735 32 ft 18 kts 324°
2026-05-07 08:41 37.47699 126.43643 32 ft 18 kts 325°
2026-05-07 08:41 37.47798 126.43554 31 ft 17 kts 324°
2026-05-07 08:41 37.47894 126.43469 31 ft 17 kts 324°
2026-05-07 08:41 37.47974 126.43398 29 ft 11 kts 326°
2026-05-07 08:42 37.48038 126.43420 32 ft 11 kts 54°
2026-05-07 08:42 37.48079 126.43494 32 ft 10 kts 55°
2026-05-07 08:42 37.48119 126.43565 32 ft 10 kts 54°
2026-05-07 08:42 37.48155 126.43630 32 ft 7 kts 68°
2026-05-07 08:43 37.48135 126.43674 32 ft 6 kts 141°
2026-05-07 08:43 37.48126 126.43683 31 ft 0 kts 144°
2026-05-07 08:43 37.48106 126.43700 32 ft 13 kts 144°
2026-05-07 08:43 37.47843 126.43934 32 ft 81 kts 145°
2026-05-07 08:44 37.47204 126.44502 32 ft 141 kts 144°
2026-05-07 08:44 37.46269 126.45315 111 ft 179 kts 146°
2026-05-07 08:44 37.45248 126.46219 737 ft 181 kts 146°
2026-05-07 08:44 37.44237 126.47272 1289 ft 193 kts 138°
2026-05-07 08:45 37.43406 126.48603 1908 ft 198 kts 123°
2026-05-07 08:45 37.42609 126.50130 2121 ft 219 kts 125°
2026-05-07 08:45 37.41633 126.51694 2341 ft 235 kts 130°
2026-05-07 08:45 37.40564 126.53312 2557 ft 250 kts 130°
2026-05-07 08:46 37.39411 126.55075 2734 ft 270 kts 129°
2026-05-07 08:46 37.38195 126.56952 3216 ft 279 kts 129°
2026-05-07 08:46 37.36794 126.58633 3895 ft 278 kts 152°
2026-05-07 08:46 37.35030 126.59506 4580 ft 277 kts 164°
2026-05-07 08:47 37.33190 126.60273 5191 ft 281 kts 164°
2026-05-07 08:47 37.31332 126.61066 5859 ft 282 kts 164°
2026-05-07 08:47 37.29476 126.61941 6518 ft 286 kts 155°
2026-05-07 08:47 37.27973 126.63617 7065 ft 297 kts 125°
2026-05-07 08:48 37.27282 126.66077 7618 ft 305 kts 94°
2026-05-07 08:48 37.27346 126.68720 8145 ft 310 kts 86°
2026-05-07 08:48 37.27523 126.71448 8650 ft 316 kts 85°
2026-05-07 08:48 37.27706 126.74220 9207 ft 321 kts 87°
2026-05-07 08:49 37.27432 126.76982 9697 ft 319 kts 117°
2026-05-07 08:49 37.26176 126.79187 10214 ft 309 kts 142°
2026-05-07 08:49 37.24589 126.81138 10367 ft 330 kts 141°
2026-05-07 08:49 37.22948 126.83239 10532 ft 349 kts 140°
2026-05-07 08:50 37.21215 126.85502 10651 ft 368 kts 139°
2026-05-07 08:50 37.19410 126.87882 10841 ft 381 kts 139°
2026-05-07 08:50 37.17574 126.90322 11282 ft 387 kts 139°
2026-05-07 08:50 37.15720 126.92791 11840 ft 389 kts 139°
2026-05-07 08:51 37.13852 126.95276 12310 ft 395 kts 139°
2026-05-07 08:51 37.11987 126.97754 12910 ft 396 kts 139°
2026-05-07 08:51 37.10091 127.00270 13448 ft 399 kts 139°
2026-05-07 08:51 37.08166 127.02818 13920 ft 404 kts 139°
2026-05-07 08:52 37.06220 127.05391 14397 ft 407 kts 139°
2026-05-07 08:52 37.04261 127.07980 14933 ft 410 kts 139°
2026-05-07 08:52 37.02313 127.10553 15453 ft 411 kts 140°
2026-05-07 08:52 37.00331 127.13167 15946 ft 415 kts 140°
2026-05-07 08:53 36.98329 127.15804 16419 ft 419 kts 140°
2026-05-07 08:53 36.96313 127.18459 16902 ft 422 kts 140°
2026-05-07 08:53 36.94285 127.21127 17383 ft 425 kts 140°
2026-05-07 08:53 36.92262 127.23788 17862 ft 427 kts 140°
2026-05-07 08:54 36.90203 127.26495 18314 ft 430 kts 140°
2026-05-07 08:54 36.88129 127.29218 18693 ft 433 kts 140°
2026-05-07 08:54 36.86041 127.31957 19083 ft 436 kts 140°
2026-05-07 08:54 36.83940 127.34710 19472 ft 439 kts 140°
2026-05-07 08:55 36.81802 127.37440 19871 ft 439 kts 142°
2026-05-07 08:55 36.79605 127.40121 20202 ft 442 kts 143°
2026-05-07 08:55 36.77410 127.42767 20538 ft 445 kts 143°
2026-05-07 08:55 36.75177 127.45472 20894 ft 448 kts 143°
2026-05-07 08:56 36.72939 127.48204 21277 ft 450 kts 143°
2026-05-07 08:56 36.70689 127.50959 21623 ft 452 kts 143°
2026-05-07 08:56 36.68464 127.53681 21937 ft 455 kts 143°
2026-05-07 08:56 36.66196 127.56453 22243 ft 457 kts 143°
2026-05-07 08:57 36.63912 127.59240 22567 ft 459 kts 143°
2026-05-07 08:57 36.61624 127.62034 22888 ft 461 kts 143°
2026-05-07 08:57 36.60104 127.63888 23084 ft 463 kts 143°
2026-05-07 08:57 36.57792 127.66706 23350 ft 465 kts 143°
2026-05-07 08:58 36.54710 127.70457 23666 ft 469 kts 143°
2026-05-07 08:58 36.52371 127.73305 23910 ft 471 kts 143°
2026-05-07 08:58 36.50020 127.76165 24131 ft 473 kts 143°
2026-05-07 08:58 36.48455 127.78067 24285 ft 475 kts 143°
2026-05-07 08:59 36.46085 127.80944 24528 ft 477 kts 144°
2026-05-07 08:59 36.43702 127.83834 24756 ft 479 kts 143°
2026-05-07 08:59 36.41309 127.86738 24977 ft 481 kts 143°
2026-05-07 08:59 36.38119 127.90611 25297 ft 483 kts 143°
2026-05-07 09:00 36.36528 127.92544 25447 ft 484 kts 143°
2026-05-07 09:00 36.34104 127.95484 25645 ft 487 kts 143°
2026-05-07 09:00 36.31672 127.98431 25859 ft 489 kts 143°
2026-05-07 09:00 36.29232 128.01386 26111 ft 490 kts 143°
2026-05-07 09:01 36.26787 128.04340 26367 ft 490 kts 143°
2026-05-07 09:01 36.24366 128.07258 26566 ft 492 kts 144°
2026-05-07 09:01 36.21896 128.10229 26793 ft 494 kts 144°
2026-05-07 09:01 36.19424 128.13199 27017 ft 496 kts 144°
2026-05-07 09:02 36.16937 128.16186 27241 ft 497 kts 143°
2026-05-07 09:02 36.14766 128.18794 27439 ft 498 kts 143°
2026-05-07 09:02 36.12301 128.21754 27656 ft 499 kts 143°
2026-05-07 09:02 36.09803 128.24749 27861 ft 500 kts 143°
2026-05-07 09:03 36.07316 128.27731 28244 ft 497 kts 143°
2026-05-07 09:03 36.04825 128.30717 28627 ft 496 kts 143°
2026-05-07 09:03 36.02351 128.33680 28968 ft 495 kts 143°
2026-05-07 09:03 35.99871 128.36641 29270 ft 495 kts 143°
2026-05-07 09:04 35.97389 128.39602 29631 ft 494 kts 143°
2026-05-07 09:04 35.94949 128.42512 30004 ft 492 kts 143°
2026-05-07 09:04 35.92487 128.45447 30334 ft 490 kts 143°
2026-05-07 09:04 35.90034 128.48368 30708 ft 487 kts 143°
2026-05-07 09:05 35.87592 128.51274 30822 ft 487 kts 143°
2026-05-07 09:05 35.85173 128.54144 30821 ft 487 kts 143°
2026-05-07 09:05 35.82532 128.56665 30815 ft 471 kts 159°
2026-05-07 09:05 35.79543 128.58161 30840 ft 455 kts 173°
2026-05-07 09:06 35.76469 128.58761 30844 ft 441 kts 186°
2026-05-07 09:06 35.73471 128.58581 30845 ft 435 kts 192°
2026-05-07 09:06 35.67425 128.57901 30846 ft 437 kts 192°
2026-05-07 09:07 35.61341 128.57303 30846 ft 439 kts 191°
2026-05-07 09:07 35.55233 128.56753 30853 ft 440 kts 191°
2026-05-07 09:08 35.49101 128.56785 30873 ft 452 kts 178°
2026-05-07 09:08 35.42963 128.58927 30853 ft 468 kts 162°
2026-05-07 09:09 35.37604 128.62142 30881 ft 468 kts 160°
2026-05-07 09:09 35.31803 128.65682 30870 ft 467 kts 161°
2026-05-07 09:10 35.25962 128.69165 30878 ft 466 kts 161°
2026-05-07 09:10 35.20107 128.72617 30885 ft 467 kts 161°
2026-05-07 09:11 35.14265 128.76058 30875 ft 468 kts 161°
2026-05-07 09:11 35.08391 128.79511 30880 ft 468 kts 161°
2026-05-07 09:12 35.02493 128.82966 30895 ft 469 kts 161°
2026-05-07 09:12 34.96735 128.86843 30898 ft 476 kts 154°
2026-05-07 09:13 34.91154 128.91175 30894 ft 478 kts 153°
2026-05-07 09:13 34.85522 128.95527 30904 ft 479 kts 154°
2026-05-07 09:14 34.79883 128.99801 30904 ft 480 kts 154°
2026-05-07 09:14 34.74182 129.04091 30909 ft 481 kts 154°
2026-05-07 09:15 34.68481 129.08379 30910 ft 482 kts 154°
2026-05-07 09:15 34.62808 129.12642 30911 ft 482 kts 154°
2026-05-07 09:16 34.57085 129.16922 30914 ft 482 kts 154°
2026-05-07 09:16 34.51366 129.21183 30916 ft 482 kts 154°
2026-05-07 09:17 34.45685 129.25412 30916 ft 481 kts 154°
2026-05-07 09:17 34.39967 129.29664 30912 ft 481 kts 154°
2026-05-07 09:18 34.34256 129.33904 30903 ft 480 kts 154°
2026-05-07 09:18 34.28592 129.38103 30910 ft 479 kts 154°
2026-05-07 09:19 34.22895 129.42318 30908 ft 478 kts 154°
2026-05-07 09:19 34.17253 129.46487 30916 ft 477 kts 154°
2026-05-07 09:20 34.11584 129.50670 30916 ft 476 kts 153°
2026-05-07 09:20 34.05927 129.54837 30919 ft 475 kts 153°
2026-05-07 09:21 34.00326 129.58983 30921 ft 475 kts 153°
2026-05-07 09:21 33.94689 129.63158 30690 ft 474 kts 154°
2026-05-07 09:22 33.91874 129.65207 30450 ft 470 kts 154°
2026-05-07 09:22 33.89077 129.67232 30207 ft 465 kts 154°
2026-05-07 09:22 33.86308 129.69236 29972 ft 462 kts 154°
2026-05-07 09:22 33.83586 129.71208 29707 ft 461 kts 154°
2026-05-07 09:23 33.80848 129.73217 29438 ft 459 kts 153°
2026-05-07 09:23 33.78126 129.75232 29005 ft 457 kts 154°
2026-05-07 09:23 33.75333 129.76946 28498 ft 445 kts 163°
2026-05-07 09:23 33.72440 129.78112 27922 ft 435 kts 172°
2026-05-07 09:24 33.69489 129.78716 27300 ft 427 kts 178°
2026-05-07 09:24 33.66544 129.79173 26715 ft 425 kts 178°
2026-05-07 09:24 33.63640 129.79625 25927 ft 428 kts 178°
2026-05-07 09:24 33.60684 129.80097 25309 ft 427 kts 178°
2026-05-07 09:25 33.57749 129.80578 24732 ft 425 kts 177°
2026-05-07 09:25 33.54787 129.81073 24179 ft 422 kts 177°
2026-05-07 09:25 33.51919 129.81556 23648 ft 420 kts 177°
2026-05-07 09:25 33.49028 129.82044 23043 ft 417 kts 177°
2026-05-07 09:26 33.46152 129.82529 22494 ft 414 kts 177°
2026-05-07 09:26 33.43311 129.83007 21946 ft 410 kts 177°
2026-05-07 09:26 33.40495 129.83480 21428 ft 406 kts 177°
2026-05-07 09:26 33.37745 129.83941 20916 ft 402 kts 177°
2026-05-07 09:27 33.34989 129.84403 20428 ft 398 kts 177°
2026-05-07 09:27 33.32257 129.84861 19960 ft 394 kts 177°
2026-05-07 09:27 33.26869 129.85765 19097 ft 384 kts 177°
2026-05-07 09:28 33.24262 129.86205 18978 ft 371 kts 178°
2026-05-07 09:28 33.21772 129.86626 18811 ft 361 kts 178°
2026-05-07 09:28 33.19298 129.87039 18429 ft 357 kts 178°
2026-05-07 09:28 33.16832 129.87447 17928 ft 356 kts 178°
2026-05-07 09:29 33.14371 129.87855 17466 ft 355 kts 178°
2026-05-07 09:29 33.11955 129.88258 17038 ft 352 kts 177°
2026-05-07 09:29 33.09538 129.88661 16607 ft 349 kts 178°
2026-05-07 09:29 33.07135 129.89062 16154 ft 348 kts 177°
2026-05-07 09:30 33.04742 129.89460 15714 ft 346 kts 177°
2026-05-07 09:30 33.02360 129.89857 15279 ft 344 kts 177°
2026-05-07 09:30 32.99985 129.90249 14852 ft 342 kts 177°
2026-05-07 09:30 32.97625 129.90635 14426 ft 341 kts 177°
2026-05-07 09:31 32.95277 129.91026 14018 ft 340 kts 175°
2026-05-07 09:31 32.93062 129.91964 13546 ft 350 kts 152°
2026-05-07 09:31 32.91239 129.93960 13083 ft 357 kts 128°
2026-05-07 09:31 32.90175 129.96597 12665 ft 362 kts 105°
2026-05-07 09:32 32.89840 129.99566 12277 ft 361 kts 96°
2026-05-07 09:32 32.89649 130.02547 11883 ft 359 kts 95°
2026-05-07 09:32 32.89471 130.05495 11508 ft 356 kts 95°
2026-05-07 09:32 32.89288 130.08399 11109 ft 355 kts 96°
2026-05-07 09:33 32.89091 130.11317 10738 ft 352 kts 96°
2026-05-07 09:33 32.88887 130.14211 10400 ft 349 kts 96°
2026-05-07 09:33 32.88682 130.17062 10239 ft 339 kts 96°
2026-05-07 09:33 32.88483 130.19812 10151 ft 327 kts 96°
2026-05-07 09:34 32.88288 130.22465 10069 ft 315 kts 96°
2026-05-07 09:34 32.88101 130.25011 9848 ft 310 kts 96°
2026-05-07 09:34 32.87908 130.27557 9495 ft 308 kts 97°
2026-05-07 09:34 32.87714 130.30098 9201 ft 306 kts 96°
2026-05-07 09:35 32.87524 130.32609 8925 ft 303 kts 97°
2026-05-07 09:35 32.87331 130.35109 8594 ft 302 kts 97°
2026-05-07 09:35 32.87139 130.37556 8290 ft 299 kts 97°
2026-05-07 09:35 32.86926 130.40019 7981 ft 297 kts 97°
2026-05-07 09:36 32.86711 130.42451 7692 ft 295 kts 97°
2026-05-07 09:36 32.86497 130.44878 7381 ft 293 kts 97°
2026-05-07 09:36 32.86323 130.46463 7179 ft 291 kts 105°
2026-05-07 09:36 32.85248 130.48998 6895 ft 273 kts 128°
2026-05-07 09:37 32.84177 130.50807 6711 ft 262 kts 128°
2026-05-07 09:37 32.83172 130.52532 6638 ft 244 kts 128°
2026-05-07 09:37 32.82222 130.54167 6279 ft 237 kts 128°
2026-05-07 09:37 32.81286 130.55778 5814 ft 235 kts 128°
2026-05-07 09:38 32.80374 130.57351 5553 ft 222 kts 128°
2026-05-07 09:38 32.79530 130.58812 5335 ft 209 kts 128°
2026-05-07 09:38 32.78722 130.60205 4921 ft 205 kts 128°
2026-05-07 09:38 32.77909 130.61603 4620 ft 204 kts 128°
2026-05-07 09:39 32.77105 130.62986 4196 ft 204 kts 128°
2026-05-07 09:39 32.76339 130.64380 3905 ft 201 kts 118°
2026-05-07 09:39 32.76239 130.65997 3768 ft 204 kts 74°
2026-05-07 09:39 32.76746 130.67599 3566 ft 213 kts 72°
2026-05-07 09:40 32.77271 130.69238 3291 ft 207 kts 68°
2026-05-07 09:40 32.77851 130.70758 3013 ft 201 kts 65°
2026-05-07 09:40 32.78437 130.72225 2771 ft 190 kts 65°
2026-05-07 09:40 32.78988 130.73608 2505 ft 180 kts 65°
2026-05-07 09:41 32.79508 130.74915 2281 ft 169 kts 65°
2026-05-07 09:41 32.80004 130.76156 2056 ft 165 kts 64°
2026-05-07 09:41 32.80489 130.77382 1836 ft 161 kts 65°
2026-05-07 09:41 32.80974 130.78597 1662 ft 166 kts 65°
2026-05-07 09:42 32.81464 130.79834 1450 ft 166 kts 65°
2026-05-07 09:42 32.81964 130.81081 1174 ft 167 kts 65°
2026-05-07 09:42 32.82456 130.82313 986 ft 162 kts 64°
2026-05-07 09:42 32.82944 130.83532 726 ft 162 kts 64°
2026-05-07 09:43 32.83406 130.84694 640 ft 145 kts 65°
2026-05-07 09:43 32.83865 130.85856 1011 ft 160 kts 66°
2026-05-07 09:43 32.84337 130.87087 1541 ft 172 kts 67°
2026-05-07 09:43 32.84998 130.88424 1804 ft 205 kts 42°
2026-05-07 09:44 32.86320 130.89216 2120 ft 225 kts
2026-05-07 09:44 32.87889 130.89070 2734 ft 230 kts 345°
2026-05-07 09:44 32.88939 130.88805 3141 ft 232 kts 345°
2026-05-07 09:44 32.90512 130.88222 3320 ft 238 kts 326°
2026-05-07 09:45 32.91820 130.86307 3349 ft 228 kts 283°
2026-05-07 09:45 32.91841 130.84493 3436 ft 224 kts 256°
2026-05-07 09:45 32.91511 130.83306 3450 ft 219 kts 248°
2026-05-07 09:45 32.90998 130.81675 3420 ft 200 kts 248°
2026-05-07 09:46 32.90520 130.80231 3369 ft 183 kts 244°
2026-05-07 09:46 32.89914 130.78960 3332 ft 167 kts 238°
2026-05-07 09:46 32.89324 130.77842 3257 ft 153 kts 233°
2026-05-07 09:46 32.88457 130.77220 3404 ft 144 kts 196°
2026-05-07 09:47 32.87499 130.77122 3516 ft 141 kts 182°
2026-05-07 09:47 32.86496 130.77314 3454 ft 148 kts 162°
2026-05-07 09:47 32.85541 130.77849 3244 ft 153 kts 157°
2026-05-07 09:47 32.84575 130.78424 2821 ft 156 kts 157°
2026-05-07 09:48 32.83634 130.79029 2436 ft 154 kts 153°
2026-05-07 09:48 32.82717 130.79696 2182 ft 154 kts 150°
2026-05-07 09:48 32.82001 130.80666 1647 ft 165 kts 112°
2026-05-07 09:48 32.82074 130.81969 1239 ft 163 kts 62°
2026-05-07 09:49 32.82749 130.83048 899 ft 163 kts 54°
2026-05-07 09:49 32.83217 130.84213 628 ft 149 kts 63°
2026-05-07 09:49 32.83604 130.85173 633 ft 100 kts 64°
2026-05-07 09:49 32.83805 130.85686 634 ft 39 kts 65°
2026-05-07 09:50 32.83896 130.85918 643 ft 15 kts 63°
2026-05-07 09:50 32.83859 130.86014 638 ft 14 kts 144°
2026-05-07 09:50 32.83770 130.86033 638 ft 13 kts 209°
2026-05-07 09:50 32.83698 130.85982 636 ft 12 kts 172°
2026-05-07 09:51 32.83630 130.86018 635 ft 4 kts 154°
2026-05-07 09:51 32.83615 130.86026 638 ft 0 kts 155°